Location: Castillon
(43.0896°N, 0.2156°E)
Time: 09:30:58
(UTC+00:00)

Cosmos 1544 Rocket - Pass Details

Date: 24 October 2021
Orbit: 603 x 631 km, 82.5° (Epoch: 08 December)

Event Time Altitude Azimuth Distance (km) Brightness Sun altitude
Rises 18:56:57 0° 217° (SW) 2,912 7.5 -21.6°
Reaches altitude 10° 18:59:29 10° 230° (SW) 2,010 6.8 -22.1°
Maximum altitude 19:03:13 26° 287° (WNW) 1,254 5.8 -22.7°
Drops below altitude 10° 19:06:59 10° 344° (NNW) 2,019 6.4 -23.4°
Sets 19:09:33 0° 357° (N) 2,929 7.1 -23.9°
